GFSNE_925_thetae_369.txt.gz
Theta_e
313 311 311 311 312 312 311 312 311 308 305 311 312 313 313 312 312 310 309 308 306 306 306 306 306 305 303 301 299 303 308 306 305 305 304 303 304 304
314 313 312 311 311 312 312 311 312 311 307 312 312 312 312 312 312 311 310 308 307 306 306 306 306 306 304 302 300 297 300 299 302 303 301 301 302 303
313 312 312 311 310 311 311 311 311 311 310 312 312 312 312 312 312 311 310 309 308 307 307 306 306 306 304 302 301 299 298 298 300 302 300 300 301 301
315 313 313 311 311 310 310 311 310 310 310 311 311 312 312 312 312 312 311 310 309 308 308 307 307 306 305 303 302 300 299 298 298 298 297 299 300 300
315 314 314 312 311 311 310 310 310 310 310 310 311 311 311 312 311 311 311 311 310 309 309 308 308 307 305 304 302 300 299 298 296 297 297 297 299 299
315 314 315 313 312 311 310 310 310 310 310 309 309 310 310 310 310 310 310 310 310 309 309 309 308 307 306 304 303 302 299 299 295 297 297 296 298 297
315 314 314 314 313 314 311 310 310 310 309 308 309 309 308 308 309 310 308 309 310 310 309 309 308 307 306 305 304 303 299 299 296 298 297 295 297 296
314 314 314 314 312 312 312 311 311 310 309 309 309 309 309 309 309 309 308 306 305 309 309 308 309 308 307 306 305 304 299 299 296 298 297 295 296 295
314 313 313 313 313 312 312 312 311 311 311 310 309 309 309 310 310 307 308 308 308 309 308 306 307 307 307 307 306 302 299 296 298 297 296 295 295 294
314 314 313 313 313 312 312 312 312 313 313 312 311 310 310 310 310 310 309 308 307 308 308 304 306 306 307 307 305 300 298 296 297 297 295 295 294 292
312 313 313 313 313 313 311 310 310 311 312 312 313 313 312 311 310 310 307 305 302 305 305 305 304 302 302 301 300 298 296 296 297 296 296 295 293 293
310 311 312 312 313 313 311 311 310 310 310 311 312 313 313 312 312 310 309 306 304 299 304 303 302 301 296 299 299 296 295 296 295 296 295 294 291 292
310 310 311 311 312 312 312 311 311 311 311 311 310 311 311 312 312 311 310 308 307 304 308 306 302 299 297 291 293 294 294 295 295 295 294 291 290 291
308 309 309 309 310 312 312 312 312 312 311 311 309 309 310 310 310 310 310 308 308 308 307 306 304 301 298 289 290 293 295 294 294 294 291 289 290 290
305 305 305 306 306 307 309 312 312 312 311 311 311 309 309 309 310 310 309 308 306 306 307 306 305 304 301 297 292 290 290 292 292 291 289 289 289 290
303 304 304 305 306 307 307 309 311 312 311 311 311 311 310 309 308 308 306 307 304 303 304 303 304 304 298 296 295 290 291 291 292 290 290 289 289 289
303 304 304 304 305 306 307 308 309 310 310 311 310 310 310 308 306 307 306 302 302 302 298 299 299 298 297 298 291 292 291 290 290 290 289 288 288 289
302 303 304 304 305 305 306 307 308 308 308 309 309 310 309 306 305 304 303 302 300 301 296 294 294 291 292 292 293 293 290 290 290 289 289 288 288 288
303 303 303 304 304 305 305 306 306 307 307 307 308 308 309 306 305 303 301 302 300 301 299 293 292 294 294 295 293 293 292 290 290 289 288 288 288 288
301 301 302 303 303 304 304 305 305 306 306 306 306 307 308 306 305 304 301 301 300 299 297 293 293 295 297 297 292 292 291 290 289 288 286 287 288 287
300 300 302 302 303 303 304 304 304 304 305 305 305 305 306 305 305 304 302 301 300 299 296 293 294 296 296 295 290 287 289 289 290 289 287 287 286 286
290 294 301 302 302 303 303 303 303 303 303 304 304 304 305 304 304 304 302 300 299 298 296 294 292 293 291 292 291 286 287 287 288 288 288 288 287 285
287 288 290 293 301 302 302 302 303 303 303 303 303 304 304 304 303 303 302 300 299 298 295 291 291 291 291 291 290 288 287 286 286 287 287 287 287 287

GFSNE_925_thetae_375.txt.gz
Theta_e
314 314 313 313 313 312 310 310 311 313 314 313 312 312 312 312 312 312 309 309 309 309 309 307 306 305 305 305 306 307 308 309 311 312 312 311 309 307
314 313 313 313 312 312 312 310 310 311 313 312 312 312 312 312 312 312 311 310 309 309 309 309 307 306 306 306 305 305 305 305 307 311 311 310 309 306
314 314 314 313 312 311 311 310 310 310 312 312 311 311 311 311 312 312 312 312 310 309 309 310 308 307 306 306 306 306 306 305 303 308 310 308 307 306
314 313 313 313 312 311 310 310 310 310 310 312 311 311 310 310 310 311 311 312 312 312 311 311 310 309 308 306 306 306 306 306 305 302 308 308 307 306
312 312 313 312 311 310 310 310 310 310 309 310 312 311 310 310 310 310 310 311 311 312 312 311 311 310 309 308 307 307 307 306 306 304 302 302 307 306
312 312 312 311 311 311 311 310 310 310 310 309 310 311 311 310 309 310 310 310 310 311 312 312 312 311 310 309 308 307 307 307 306 305 304 301 300 302
310 311 311 312 313 313 311 311 310 310 310 310 310 310 311 309 308 310 308 310 311 310 310 310 311 312 311 310 310 309 308 308 307 307 305 303 300 299
309 309 310 311 311 312 312 312 311 310 311 311 311 311 311 311 309 309 309 310 312 310 309 309 309 310 310 311 311 311 310 309 308 308 306 304 302 300
306 307 309 310 310 311 311 311 312 312 311 311 311 311 311 311 311 310 309 310 310 311 308 309 309 308 309 309 310 310 310 310 309 309 308 306 303 302
304 304 306 307 309 309 310 310 311 311 312 313 312 311 311 310 310 310 310 310 309 309 308 309 310 308 308 308 308 309 309 308 309 309 309 307 304 303
303 303 303 304 304 306 310 311 311 310 310 310 310 311 312 312 310 309 309 309 310 309 306 307 309 307 306 307 307 309 309 309 307 307 308 308 305 303
302 302 302 302 301 303 306 307 308 310 310 310 310 309 310 310 311 311 310 310 310 311 309 306 308 306 308 306 307 307 307 307 307 306 306 307 305 302
302 301 300 299 300 302 304 305 306 305 307 308 309 310 310 309 310 311 312 311 311 310 310 307 306 303 306 307 304 304 304 303 304 304 305 304 305 302
298 298 299 300 301 302 302 303 304 303 306 307 309 310 310 310 309 310 311 312 312 311 311 309 307 305 304 307 304 303 302 301 302 303 303 303 303 302
298 298 299 299 300 300 301 302 303 304 305 306 308 309 309 310 310 309 309 310 311 311 310 311 307 307 305 307 309 302 297 298 299 302 302 302 301 300
295 296 297 298 299 300 300 301 302 303 304 305 306 307 308 309 310 309 309 309 309 310 309 309 308 307 306 305 306 307 298 300 299 297 299 299 300 299
293 295 295 297 297 298 299 301 301 302 303 304 305 306 306 307 308 308 308 309 308 308 308 307 307 305 304 305 304 301 303 297 297 298 296 296 296 296
288 288 289 289 290 291 292 295 300 301 302 303 303 304 304 305 306 306 306 307 307 307 307 307 302 299 297 299 300 300 300 297 295 295 294 294 294 292
285 286 286 287 287 288 289 289 290 291 297 301 302 303 303 304 304 303 304 305 305 306 306 306 300 300 300 302 302 300 299 295 293 292 292 292 294 293
284 284 285 285 286 286 286 287 288 289 289 291 296 301 302 303 303 302 303 304 304 305 305 305 299 299 302 303 302 301 301 298 292 293 290 291 292 290
283 283 283 284 284 284 285 285 286 287 288 288 289 291 295 301 302 302 302 302 303 304 304 304 303 302 302 301 299 298 297 299 294 293 290 290 288 288
282 282 283 283 283 283 283 284 285 286 286 287 287 288 289 291 295 301 301 302 302 303 303 303 303 302 298 298 299 299 294 297 293 291 291 292 290 289
280 281 282 282 283 283 283 283 284 285 285 286 286 287 287 289 290 292 296 301 302 302 302 303 302 298 298 298 298 298 295 291 290 289 290 290 291 291

GFSNE_925_thetae_378.txt.gz
Theta_e
316 316 316 316 316 315 315 314 314 315 316 316 315 316 315 314 313 312 312 311 310 309 309 309 308 307 306 305 304 304 309 315 315 315 315 315 314 313
316 316 316 316 316 315 315 315 314 314 316 313 314 315 314 312 312 312 312 311 311 310 309 309 309 309 307 306 305 305 304 305 308 314 314 315 314 313
316 316 316 316 316 316 315 315 315 315 316 315 314 313 314 314 313 312 312 312 312 312 311 309 309 309 309 308 307 306 306 306 306 307 306 313 314 313
316 316 316 316 316 315 315 315 315 315 315 316 316 315 314 314 313 313 314 313 312 312 312 312 310 309 309 309 309 307 306 306 306 307 306 307 313 313
315 315 316 316 316 316 315 315 315 315 315 315 315 315 316 315 314 314 313 313 313 311 311 311 312 312 310 310 310 309 308 307 306 306 306 307 307 312
312 314 314 315 315 315 316 316 315 315 315 315 315 315 315 316 315 314 314 314 313 312 311 311 311 311 312 312 311 311 310 309 308 307 307 307 306 305
308 310 311 313 313 313 314 315 315 315 315 315 315 315 315 316 316 314 313 314 314 314 313 313 311 310 311 311 312 312 311 311 310 308 307 307 307 306
306 306 308 309 311 312 312 311 312 314 315 315 315 316 316 316 316 316 314 316 318 316 314 314 313 313 312 312 312 311 312 312 311 310 309 308 308 307
305 305 306 306 307 309 311 312 312 312 312 313 314 315 315 315 315 316 315 314 315 315 314 314 313 313 313 312 311 311 311 312 312 312 311 310 309 308
304 304 304 305 305 305 305 308 311 312 313 313 314 314 314 314 314 314 314 314 314 314 313 315 313 313 313 313 312 311 310 310 310 310 311 311 311 309
303 303 303 303 303 301 302 304 306 308 310 311 311 311 311 311 313 314 314 314 314 313 313 313 312 312 312 313 312 311 310 310 309 309 309 309 310 310
298 300 302 302 301 300 301 303 304 305 306 307 307 308 309 311 311 310 312 314 314 313 313 313 312 311 312 312 311 309 309 308 307 307 307 307 309 309
299 298 299 299 300 300 300 301 302 303 303 304 305 306 307 309 310 311 312 313 314 314 313 312 311 311 312 311 309 308 307 307 306 307 306 306 308 308
296 296 297 296 297 298 299 301 301 302 303 304 305 306 306 307 309 310 310 311 313 314 314 313 312 312 312 311 311 311 305 305 304 306 307 307 306 307
293 294 295 296 298 298 298 299 300 302 302 303 304 304 305 306 307 309 309 310 311 311 312 313 314 312 311 311 311 312 312 306 303 305 306 307 307 306
291 293 293 292 292 292 292 293 295 297 300 302 302 303 304 305 306 307 309 310 311 310 310 311 312 312 312 311 310 309 309 309 306 303 304 306 306 306
288 289 288 289 289 289 289 289 290 290 291 291 294 300 302 303 304 305 306 307 307 307 308 308 308 308 309 309 308 308 307 307 306 305 302 302 304 304
286 286 286 287 287 287 287 288 288 289 289 290 290 291 293 298 302 303 303 304 304 304 305 306 307 305 303 303 305 304 305 305 304 301 300 301 301 301
285 285 285 285 285 285 285 286 287 287 288 288 288 289 289 290 292 296 302 303 303 303 303 304 304 301 303 304 304 303 303 303 303 298 298 298 300 300
283 284 284 284 284 284 284 285 285 286 286 287 287 288 288 289 289 290 291 295 301 302 302 303 304 304 301 303 304 304 304 301 301 299 296 297 297 298
282 282 283 283 283 284 284 284 284 285 285 286 286 286 287 288 288 288 289 291 292 295 301 302 302 303 303 302 302 302 301 302 302 299 298 296 294 293
281 281 281 282 282 283 283 283 284 284 284 285 285 286 286 287 287 288 288 289 290 292 293 297 301 302 302 301 301 302 302 300 300 301 297 296 294 292
280 280 280 281 281 281 281 282 282 283 283 284 285 285 286 286 286 287 287 287 289 290 291 294 295 300 302 301 300 300 301 300 295 296 296 295 293 293

GFSNE_925_thetae_384.txt.gz
Theta_e
319 318 319 318 318 317 317 317 316 312 311 315 315 315 316 316 316 316 316 315 314 313 312 311 310 309 309 309 308 309 315 319 319 319 320 320 320 320
318 319 319 318 318 318 318 317 317 316 314 316 315 314 316 317 316 316 316 315 314 314 313 312 312 310 309 309 309 308 308 307 309 313 313 313 315 316
316 317 318 318 318 318 318 318 317 317 316 316 316 316 316 316 316 316 315 314 313 312 312 312 312 312 311 309 309 309 309 309 308 307 306 309 309 311
308 311 314 315 317 317 318 317 318 318 317 316 316 316 317 317 317 317 316 316 315 314 314 314 314 313 312 311 311 309 309 309 309 309 308 307 306 306
306 307 308 309 312 314 315 316 316 317 317 317 316 317 317 317 317 317 317 317 317 315 315 314 314 314 314 313 312 311 311 310 309 309 309 309 309 308
304 305 306 307 308 308 309 310 312 313 314 316 316 316 317 317 317 316 316 316 316 317 316 315 315 315 314 314 313 313 312 311 311 310 309 309 309 309
301 304 305 305 306 306 307 308 310 311 312 312 312 314 315 316 316 316 316 317 317 317 317 316 316 315 315 315 314 314 313 313 312 311 310 311 310 310
302 303 304 304 304 305 306 306 305 303 305 311 311 312 312 313 313 314 315 315 314 316 316 316 316 316 316 316 316 315 315 315 314 314 313 312 312 311
299 300 302 302 303 303 302 302 302 302 302 304 308 311 312 312 313 313 314 314 313 314 315 315 316 315 315 315 315 315 315 315 314 314 314 313 313 312
296 297 298 299 300 301 300 299 299 299 300 301 303 304 304 305 307 309 309 310 310 311 312 313 314 314 314 314 314 314 314 314 314 314 314 313 313 312
294 295 296 297 298 299 298 297 297 297 298 300 300 301 301 302 303 303 305 306 307 308 310 311 312 313 313 313 313 313 313 313 312 312 312 313 313 312
292 292 294 295 296 297 297 297 298 298 299 299 299 301 302 303 304 305 305 306 307 308 310 310 311 312 312 312 312 313 312 312 312 311 311 310 310 309
291 292 292 294 295 294 294 294 294 294 293 295 295 295 296 296 297 300 302 303 305 307 308 309 311 311 312 312 312 312 311 311 311 311 311 311 311 310
290 290 290 290 290 290 290 291 291 290 291 291 291 291 291 292 292 293 296 298 300 302 303 305 307 308 309 310 310 310 310 310 310 310 310 310 310 310
288 288 288 287 287 286 287 288 287 288 288 288 289 289 289 289 290 290 291 292 295 298 300 302 302 303 304 306 307 307 308 309 310 310 310 310 310 310
286 285 285 285 285 285 284 285 285 286 286 287 287 287 287 287 288 288 289 290 291 291 292 294 296 297 302 303 303 304 304 306 307 308 308 309 309 309
284 284 284 284 284 284 284 284 284 284 285 285 285 286 286 287 287 287 287 288 288 289 289 290 290 291 293 298 301 302 302 302 303 305 305 306 306 306
283 283 283 283 283 283 283 283 283 283 284 284 284 284 285 286 286 286 286 287 287 287 287 287 288 289 291 292 296 299 300 301 302 302 302 303 303 303
282 282 282 282 282 282 282 282 282 282 283 283 283 283 283 284 284 285 286 286 286 286 286 286 286 287 289 289 290 291 292 294 296 301 302 302 302 302
281 281 281 281 282 281 281 281 281 281 282 281 282 282 282 283 283 284 284 285 285 285 285 285 286 286 287 288 288 289 290 293 294 298 300 302 302 302
281 281 281 280 281 281 281 281 281 281 281 281 281 281 281 281 282 283 283 283 284 284 284 284 285 285 286 286 287 287 288 288 290 292 294 296 300 301
281 280 280 280 280 280 280 280 280 280 280 280 280 280 280 281 281 282 283 282 283 284 283 283 284 285 285 286 286 286 287 287 288 289 290 292 295 299
280 280 280 280 280 279 279 279 279 279 279 279 280 279 279 280 281 281 282 282 282 283 282 282 283 284 284 284 285 285 286 286 287 288 289 290 291 294